User: anonymous   Login
Location: Unspecified
(0.0000°N, 0.0000°E)
Time: 12:19:27
(UTC+02:00)
Language:

Cosmos 1315 Rocket - Orbit

View from above orbital plane
View from above orbital plane
View from above satellite
View from above satellite

Ground track
Ground track

The orbit data is extracted from the following two-line orbital elements,

1 12904U 81103B   16181.77024057  .00000175  00000-0  10557-4 0  9993
2 12904  81.1774 317.9509 0029435 142.6497 217.6780 15.04964026439819
Epoch (UTC): 29 June 2016 18:29:08
Eccentricity: 0.0029435
inclination: 81.1774°
perigee height: 531 km
apogee height: 572 km
right ascension of ascending node: 317.9509°
argument of perigee: 142.6497°
revolutions per day: 15.04964026
mean anomaly at epoch: 217.6780°
orbit number at epoch: 43981

The dashed part of the orbit path shows where the satellite is in the earth's shadow,  

DLR